Weather History for KHRO - May, 2013

Change the Weather History Date:

Friday, May 10, 2013

  Actual Average Record
Temperature  
Mean Temperature 64 °F 64 °F  
Max Temperature 73 °F 75 °F 95 °F (1928)
Min Temperature 54 °F 54 °F 30 °F (1909)
Degree Days  
Heating Degree Days 1 3  
Month to date heating degree days 99 37  
Since 1 July heating degree days 3935 3958  
Cooling Degree Days 0 2  
Month to date cooling degree days 11 20  
Year to date cooling degree days 43 57  
Growing Degree Days 14 (Base 50)    
Moisture  
Dew Point 56 °F    
Average Humidity 75    
Maximum Humidity 93    
Minimum Humidity 57    
Precipitation  
Precipitation 0.28 in 0.16 in 4.25 in (1943)
Month to date precipitation 2.51 1.66  
Year to date precipitation 15.85 14.97  
Snow  
Snow 0.00 in 0.00 in - ()
Month to date snowfall 0.1 0.0  
Since 1 July snowfall 4.7 11.5  
Snow Depth 0.00 in    
Sea Level Pressure  
Sea Level Pressure 29.96 in    
Wind  
Wind Speed 7 mph (WNW)    
Max Wind Speed 15 mph    
Max Gust Speed 22 mph    
Visibility 9 miles    
Events Rain    
T = Trace of Precipitation, MM = Missing Value Source: NWS Daily Summary

Daily Weather History Graph

Daily Weather History Graph

Search for Another Location

Airport or City:

Trip Planner

Search our weather history database for the weather conditions in past years. The results will help you decide how hot, cold, wet, or windy it might be!

Date:

Astronomy

May. 10, 2013 Rise Set
Actual Time 6:10 AM CDT 8:08 PM CDT
Civil Twilight 5:42 AM CDT 8:36 PM CDT
Nautical Twilight 5:07 AM CDT 9:11 PM CDT
Astronomical Twilight 4:30 AM CDT 9:48 PM CDT
Moon 6:35 AM CDT (5/10) 8:57 PM CDT (5/10)
Length of Visible Light 14h 54m
Length of Day
13h 57m
New Moon, 0% of the Moon is Illuminated
May 10
New Moon
May 17
First Quarter
May 24
Full
May 31
Last Quarter
Jun 8
New

Hourly Weather History & Observations

Time (CDT) Temp. Dew Point Humidity Pressure Visibility Wind Dir Wind Speed Gust Speed Precip Events Conditions
12:53 AM 59.0 °F 57.2 °F 94% 29.99 in 7.0 mi South 5.8 mph - N/A Rain Light Rain
1:27 AM 59.0 °F 57.2 °F 94% 29.98 in 1.8 mi SW 4.6 mph - 0.10 in Rain Heavy Rain
1:34 AM 59.0 °F 57.2 °F 94% 29.96 in 3.0 mi SW 3.5 mph - 0.11 in Rain Light Rain
1:53 AM 59.0 °F 57.0 °F 93% 29.92 in 10.0 mi SSW 4.6 mph - 0.11 in Rain Light Rain
2:53 AM 57.9 °F 55.9 °F 93% 29.91 in 8.0 mi WSW 5.8 mph - 0.09 in Rain Rain
3:53 AM 59.0 °F 55.9 °F 90% 29.89 in 9.0 mi West 8.1 mph - 0.06 in Rain Light Rain
4:53 AM 59.0 °F 55.9 °F 90% 29.88 in 10.0 mi Calm Calm - 0.01 in Rain Light Rain
5:53 AM 57.9 °F 57.0 °F 97% 29.88 in 10.0 mi WNW 5.8 mph - 0.00 in   Scattered Clouds
6:53 AM 57.2 °F 55.4 °F 94% 29.92 in 10.0 mi NW 4.6 mph - N/A   Clear
7:53 AM 60.1 °F 57.0 °F 90% 29.94 in 10.0 mi Calm Calm - N/A   Partly Cloudy
8:53 AM 62.1 °F 59.0 °F 90% 29.94 in 10.0 mi West 5.8 mph - N/A   Clear
9:33 AM 64.4 °F 59.0 °F 83% 29.97 in 10.0 mi WNW 9.2 mph - N/A   Mostly Cloudy
9:53 AM 63.0 °F 59.0 °F 87% 29.96 in 10.0 mi WNW 6.9 mph - N/A   Overcast
10:26 AM 66.2 °F 60.8 °F 83% 29.97 in 10.0 mi NW 9.2 mph - N/A   Mostly Cloudy
10:33 AM 64.4 °F 59.0 °F 83% 29.97 in 10.0 mi NW 6.9 mph 17.3 mph N/A   Mostly Cloudy
10:41 AM 64.4 °F 59.0 °F 83% 29.97 in 10.0 mi NW 9.2 mph - N/A   Mostly Cloudy
10:53 AM 64.9 °F 59.0 °F 81% 29.95 in 10.0 mi WNW 9.2 mph - N/A   Overcast
11:37 AM 66.2 °F 59.0 °F 78% 29.98 in 10.0 mi WNW 9.2 mph - N/A   Mostly Cloudy
11:53 AM 68.0 °F 57.0 °F 68% 29.95 in 10.0 mi NNW 9.2 mph - 0.01 in   Scattered Clouds
12:53 PM 68.0 °F 57.0 °F 68% 29.96 in 10.0 mi WNW 5.8 mph - N/A   Mostly Cloudy
1:53 PM 71.1 °F 57.0 °F 61% 29.94 in 10.0 mi WSW 5.8 mph - N/A   Scattered Clouds
2:53 PM 68.0 °F 55.9 °F 65% 29.94 in 10.0 mi WNW 9.2 mph 16.1 mph N/A   Overcast
3:53 PM 71.1 °F 55.0 °F 57% 29.94 in 10.0 mi NW 9.2 mph - N/A   Mostly Cloudy
4:53 PM 70.0 °F 54.0 °F 57% 29.94 in 10.0 mi WNW 12.7 mph 18.4 mph N/A   Scattered Clouds
5:53 PM 66.0 °F 53.1 °F 63% 29.94 in 10.0 mi NW 11.5 mph - N/A   Partly Cloudy
6:53 PM 66.9 °F 51.1 °F 57% 29.94 in 10.0 mi NNW 12.7 mph 18.4 mph N/A   Clear
7:53 PM 62.1 °F 53.1 °F 72% 29.96 in 10.0 mi NNW 9.2 mph - N/A   Clear
8:53 PM 59.0 °F 53.1 °F 81% 29.99 in 10.0 mi NNW 6.9 mph - N/A   Partly Cloudy
9:07 PM 60.8 °F 53.6 °F 77% 30.02 in 10.0 mi NNW 4.6 mph - N/A   Mostly Cloudy
9:44 PM 59.0 °F 53.6 °F 82% 30.03 in 10.0 mi NW 4.6 mph - N/A   Mostly Cloudy
9:53 PM 59.0 °F 53.1 °F 81% 30.01 in 10.0 mi NNW 5.8 mph - N/A   Mostly Cloudy
10:20 PM 57.2 °F 53.6 °F 88% 30.04 in 10.0 mi NNW 8.1 mph - N/A   Mostly Cloudy
10:53 PM 57.9 °F 53.1 °F 84% 30.03 in 10.0 mi NW 4.6 mph - N/A   Overcast
11:02 PM 57.2 °F 53.6 °F 88% 30.06 in 10.0 mi NNW 5.8 mph - N/A   Overcast
11:53 PM 55.0 °F 52.0 °F 89% 30.04 in 10.0 mi NW 3.5 mph - N/A   Partly Cloudy